When you browse on this site, cookies collect data to enhance your experience and personalize the content and advertising you see.
Visit our Privacy Policy to learn more. By continuing to use the site, you agree to this use of cookies and data.
  • In Latvia
  • List of Countries
  • For 7 days
  • Water Temperature
  • Weather Map
  • Weather Widgets
  • user-avatar
    Login

    Hourly Weather Zahla

    Today, 1 June, Monday

    Time Temperature Precipitation Wind Pressure Humidity
    00:00 +15°C° 0 mm 1 mps 673 mmHg 69%
    01:00 +15°C° 0 mm 1 mps 673 mmHg 66%
    02:00 +14°C° 0 mm 1 mps 672 mmHg 63%
    03:00 +14°C° 0 mm 1 mps 672 mmHg 59%
    04:00 +14°C° 0 mm 1 mps 672 mmHg 54%
    05:00 +14°C° 0 mm 1 mps 673 mmHg 49%
    06:00 +16°C° 0 mm 1 mps 673 mmHg 38%
    07:00 +20°C° 0 mm 1 mps 674 mmHg 27%
    08:00 +22°C° 0 mm 1 mps 674 mmHg 16%
    09:00 +23°C° 0 mm 2 mps 674 mmHg 21%
    10:00 +24°C° 0 mm 3 mps 674 mmHg 25%
    11:00 +25°C° 0 mm 3 mps 675 mmHg 29%
    12:00 +25°C° 0 mm 4 mps 674 mmHg 27%
    13:00 +26°C° 0 mm 4 mps 674 mmHg 24%
    14:00 +26°C° 0 mm 4 mps 674 mmHg 22%
    15:00 +26°C° 0 mm 3 mps 673 mmHg 23%
    16:00 +25°C° 0 mm 3 mps 673 mmHg 25%
    17:00 +25°C° 0 mm 3 mps 673 mmHg 26%
    18:00 +23°C° 0 mm 2 mps 672 mmHg 30%
    19:00 +21°C° 0 mm 2 mps 672 mmHg 34%
    20:00 +21°C° 0 mm 1 mps 672 mmHg 38%
    21:00 +20°C° 0 mm 1 mps 671 mmHg 39%
    22:00 +20°C° 0 mm 1 mps 671 mmHg 40%
    23:00 +20°C° 0 mm 1 mps 671 mmHg 41%

    Tomorrow, 2 June, Tuesday

    Time Temperature Precipitation Wind Pressure Humidity
    00:00 +19°C° 0 mm 1 mps 670 mmHg 41%
    01:00 +19°C° 0 mm 1 mps 670 mmHg 42%
    02:00 +19°C° 0 mm 1 mps 669 mmHg 42%
    03:00 +19°C° 0 mm 1 mps 669 mmHg 43%
    04:00 +19°C° 0 mm 1 mps 669 mmHg 43%
    05:00 +19°C° 0 mm 1 mps 669 mmHg 44%
    06:00 +20°C° 0 mm 2 mps 670 mmHg 39%
    07:00 +22°C° 0 mm 3 mps 670 mmHg 34%
    08:00 +25°C° 0 mm 4 mps 670 mmHg 29%
    09:00 +26°C° 0 mm 6 mps 670 mmHg 29%
    10:00 +27°C° 0 mm 8 mps 671 mmHg 28%
    11:00 +27°C° 0 mm 9 mps 671 mmHg 28%
    12:00 +27°C° 0 mm 10 mps 670 mmHg 31%
    13:00 +26°C° 0 mm 10 mps 670 mmHg 34%
    14:00 +26°C° 0 mm 10 mps 670 mmHg 36%
    15:00 +24°C° 0 mm 9 mps 670 mmHg 36%
    16:00 +22°C° 0 mm 7 mps 670 mmHg 36%
    17:00 +21°C° 0 mm 6 mps 669 mmHg 36%
    18:00 +19°C° 0 mm 5 mps 669 mmHg 45%
    19:00 +17°C° 0 mm 4 mps 669 mmHg 55%
    20:00 +14°C° 0 mm 3 mps 669 mmHg 65%
    21:00 +14°C° 0 mm 3 mps 669 mmHg 70%
    22:00 +13°C° 0 mm 3 mps 669 mmHg 75%
    23:00 +14°C° 0 mm 2 mps 669 mmHg 80%

    Day after tomorrow, 3 June, Wednesday

    Time Temperature Precipitation Wind Pressure Humidity
    00:00 +14°C° 0 mm 2 mps 669 mmHg 81%
    01:00 +14°C° 0 mm 2 mps 669 mmHg 82%
    02:00 +13°C° 0 mm 2 mps 669 mmHg 82%
    03:00 +13°C° 0 mm 2 mps 669 mmHg 83%
    04:00 +13°C° 0 mm 2 mps 669 mmHg 84%
    05:00 +12°C° 0 mm 1 mps 669 mmHg 85%
    06:00 +14°C° 0 mm 2 mps 670 mmHg 72%
    07:00 +15°C° 0 mm 2 mps 671 mmHg 60%
    08:00 +17°C° 0 mm 2 mps 671 mmHg 47%
    09:00 +18°C° 0 mm 3 mps 672 mmHg 45%
    10:00 +19°C° 0 mm 3 mps 672 mmHg 43%
    11:00 +20°C° 0 mm 4 mps 672 mmHg 40%
    12:00 +21°C° 0 mm 4 mps 672 mmHg 42%
    13:00 +21°C° 0 mm 4 mps 672 mmHg 43%
    14:00 +22°C° 0 mm 4 mps 672 mmHg 45%
    15:00 +21°C° 0 mm 4 mps 672 mmHg 47%
    16:00 +20°C° 0 mm 4 mps 672 mmHg 50%
    17:00 +20°C° 0 mm 3 mps 672 mmHg 53%
    18:00 +18°C° 0 mm 3 mps 672 mmHg 57%
    19:00 +17°C° 0 mm 2 mps 672 mmHg 61%
    20:00 +16°C° 0 mm 1 mps 672 mmHg 66%
    21:00 +15°C° 0 mm 1 mps 672 mmHg 61%
    22:00 +15°C° 0 mm 1 mps 672 mmHg 57%
    23:00 +14°C° 0 mm 1 mps 671 mmHg 52%

    4 June, Thursday

    Time Temperature Precipitation Wind Pressure Humidity
    00:00 +14°C° 0 mm 1 mps 671 mmHg 49%
    01:00 +14°C° 0 mm 1 mps 671 mmHg 45%
    02:00 +13°C° 0 mm 1 mps 671 mmHg 42%
    03:00 +14°C° 0 mm 1 mps 671 mmHg 39%
    04:00 +14°C° 0 mm 1 mps 671 mmHg 36%
    05:00 +14°C° 0 mm 1 mps 671 mmHg 33%
    06:00 +16°C° 0 mm 2 mps 672 mmHg 30%
    07:00 +19°C° 0 mm 3 mps 673 mmHg 26%
    08:00 +21°C° 0 mm 3 mps 674 mmHg 23%
    09:00 +22°C° 0 mm 4 mps 674 mmHg 25%
    10:00 +23°C° 0 mm 4 mps 674 mmHg 28%
    11:00 +23°C° 0 mm 5 mps 675 mmHg 30%
    12:00 +25°C° 0 mm 5 mps 675 mmHg 32%
    13:00 +25°C° 0 mm 5 mps 675 mmHg 34%
    14:00 +24°C° 0 mm 6 mps 675 mmHg 36%
    15:00 +23°C° 0 mm 5 mps 674 mmHg 37%
    16:00 +22°C° 0 mm 5 mps 674 mmHg 38%
    17:00 +22°C° 0 mm 4 mps 674 mmHg 40%
    18:00 +20°C° 0 mm 3 mps 674 mmHg 44%
    19:00 +19°C° 0 mm 2 mps 674 mmHg 49%
    20:00 +19°C° 0 mm 1 mps 674 mmHg 53%
    21:00 +18°C° 0 mm 1 mps 674 mmHg 53%
    22:00 +16°C° 0 mm 1 mps 674 mmHg 53%
    23:00 +16°C° 0 mm 1 mps 674 mmHg 53%

    5 June, Friday

    Time Temperature Precipitation Wind Pressure Humidity
    00:00 +15°C° 0 mm 1 mps 673 mmHg 52%
    01:00 +15°C° 0 mm 1 mps 673 mmHg 51%
    02:00 +15°C° 0 mm 1 mps 673 mmHg 49%
    03:00 +14°C° 0 mm 1 mps 673 mmHg 49%
    04:00 +14°C° 0 mm 1 mps 673 mmHg 48%
    05:00 +14°C° 0 mm 1 mps 673 mmHg 47%
    06:00 +18°C° 0 mm 1 mps 674 mmHg 39%
    07:00 +20°C° 0 mm 1 mps 675 mmHg 32%
    08:00 +23°C° 0 mm 1 mps 676 mmHg 24%
    09:00 +24°C° 0 mm 1 mps 676 mmHg 22%
    10:00 +26°C° 0 mm 2 mps 676 mmHg 21%
    11:00 +27°C° 0 mm 3 mps 676 mmHg 19%
    12:00 +27°C° 0 mm 3 mps 676 mmHg 20%
    13:00 +28°C° 0 mm 3 mps 676 mmHg 21%
    14:00 +28°C° 0 mm 4 mps 676 mmHg 22%
    15:00 +28°C° 0 mm 3 mps 676 mmHg 22%
    16:00 +27°C° 0 mm 3 mps 675 mmHg 23%
    17:00 +27°C° 0 mm 2 mps 675 mmHg 23%
    18:00 +25°C° 0 mm 2 mps 675 mmHg 29%
    19:00 +22°C° 0 mm 1 mps 674 mmHg 34%
    20:00 +20°C° 0 mm 1 mps 674 mmHg 40%
    21:00 +20°C° 0 mm 1 mps 674 mmHg 38%
    22:00 +20°C° 0 mm 1 mps 674 mmHg 37%
    23:00 +19°C° 0 mm 2 mps 674 mmHg 36%

    6 June, Saturday

    Time Temperature Precipitation Wind Pressure Humidity
    00:00 +19°C° 0 mm 1 mps 674 mmHg 36%
    01:00 +19°C° 0 mm 1 mps 673 mmHg 36%
    02:00 +19°C° 0 mm 1 mps 673 mmHg 36%
    03:00 +18°C° 0 mm 1 mps 673 mmHg 36%
    04:00 +18°C° 0 mm 1 mps 673 mmHg 37%
    05:00 +18°C° 0 mm 1 mps 673 mmHg 37%
    06:00 +21°C° 0 mm 1 mps 674 mmHg 31%
    07:00 +23°C° 0 mm 1 mps 675 mmHg 25%
    08:00 +26°C° 0 mm 1 mps 676 mmHg 19%
    09:00 +27°C° 0 mm 2 mps 676 mmHg 18%
    10:00 +29°C° 0 mm 2 mps 676 mmHg 16%
    11:00 +30°C° 0 mm 2 mps 676 mmHg 15%
    12:00 +31°C° 0 mm 3 mps 676 mmHg 15%
    13:00 +31°C° 0 mm 3 mps 676 mmHg 15%
    14:00 +33°C° 0 mm 3 mps 675 mmHg 15%
    15:00 +31°C° 0 mm 3 mps 675 mmHg 16%
    16:00 +31°C° 0 mm 3 mps 674 mmHg 18%
    17:00 +30°C° 0 mm 3 mps 674 mmHg 19%
    18:00 +28°C° 0 mm 2 mps 674 mmHg 23%
    19:00 +26°C° 0 mm 2 mps 673 mmHg 27%
    20:00 +24°C° 0 mm 1 mps 673 mmHg 31%
    21:00 +23°C° 0 mm 1 mps 673 mmHg 29%
    22:00 +23°C° 0 mm 2 mps 672 mmHg 28%
    23:00 +23°C° 0 mm 2 mps 672 mmHg 27%
    Show more